Location: Goettingen
(51.5300°N, 9.9433°E)
Time: 20:17:39
(UTC+02:00)

ISS - Pass Details

Date: 19 September 2021
Orbit: 419 x 423 km, 51.6° (Epoch: 20 September)

Event Time Altitude Azimuth Distance (km) Brightness Sun altitude
Rises 21:40:14 0° 250° (WSW) 2,362 0.6 -20.8°
Reaches altitude 10° 21:42:20 10° 248° (WSW) 1,500 -0.5 -21.1°
Enters shadow 21:44:44 43° 233° (SW) 605 -2.9 -21.4°
